Location: Bannatyne
(13.0833°N, 59.5333°W)
Time: 16:06:08
(UTC+00:00)

deb Explorer IX - Pass Details

Date: 27 January 2020
Orbit: 549 x 1099 km, 38.8° (Epoch: 22 February)

Event Time Altitude Azimuth Distance (km) Brightness Sun altitude
Rises 23:39:34 0° 265° (W) 3,391 ? -24.8°
Reaches altitude 10° 23:42:27 10° 278° (W) 2,552 ? -25.5°
Maximum altitude 23:47:24 25° 332° (NNW) 1,856 ? -26.7°
Enters shadow 23:49:43 21° 1° (N) 2,097 ? -27.2°
Drops below altitude 10° 23:52:51 10° 24° (NNE) 2,829 - -28.0°
Sets 23:56:14 0° 37° (NE) 3,841 - -28.8°
